GFSGL_sfc_dewp_024.txt.gz
Dewpoint
33 39 40 41 40 36 37 43 45 45 43 40 39 38 37 37 37 38 37 37 36 36 35 36 36 35 35 35 35 35 34 35 35 36 38 38 37 36 37 37 40 39 40
36 38 39 41 42 39 36 37 39 43 43 41 39 38 37 36 37 36 36 34 35 35 36 35 34 33 33 35 35 34 35 37 37 36 36 36 37 37 36 37 39 38 38
34 37 40 41 43 40 36 36 36 39 41 40 39 38 37 36 35 35 34 33 33 34 35 35 34 33 33 33 34 35 37 38 37 37 37 37 38 37 36 38 38 38 38
34 36 41 43 43 42 40 36 36 37 39 39 38 38 37 35 34 34 33 32 32 32 34 33 32 33 31 30 34 35 36 37 37 37 38 37 37 38 38 38 38 40 41
31 35 42 44 43 41 42 39 36 36 37 38 37 37 36 35 33 32 32 32 30 30 31 31 33 34 36 36 37 38 38 38 38 37 37 37 35 35 35 37 39 40 40
29 30 38 44 43 42 43 44 39 36 36 37 36 36 35 33 43 44 37 32 31 30 31 30 29 40 36 39 41 42 41 38 37 37 38 36 35 36 37 38 41 42 40
29 30 34 41 42 40 43 45 45 41 36 36 34 34 34 33 46 47 45 32 32 30 31 32 30 30 41 35 36 38 39 40 40 38 37 36 36 38 40 41 42 43 44
30 30 33 39 39 38 39 44 45 45 36 36 33 33 33 32 47 47 46 33 33 32 31 32 34 33 35 36 35 35 37 37 38 38 37 38 39 40 43 45 45 45 46
30 31 38 38 36 37 38 43 44 45 42 36 33 32 32 31 47 47 40 33 33 33 34 34 35 35 37 37 36 37 38 39 41 41 42 43 44 45 46 46 45 44 42
30 38 38 37 37 36 35 37 44 46 45 36 32 32 38 38 47 47 39 33 32 34 34 34 44 36 38 39 37 38 38 39 37 37 38 41 43 44 46 46 45 44 44
32 37 37 37 37 37 34 32 44 46 46 37 31 31 33 38 42 47 43 32 33 33 33 34 36 42 40 40 40 40 41 40 38 38 40 39 43 43 44 45 46 46 46
32 36 37 37 36 36 30 34 42 45 45 39 30 30 32 37 45 47 46 40 40 31 32 34 41 44 41 41 41 42 42 40 38 38 37 40 42 42 42 44 46 49 51
30 33 37 37 36 33 28 35 39 44 44 40 30 30 32 37 42 48 47 45 40 34 37 42 43 42 41 40 42 40 40 39 38 38 37 41 41 41 42 45 47 50 53
31 34 38 38 36 32 35 35 42 43 43 40 30 30 32 37 40 42 40 41 41 38 40 39 40 40 40 40 40 42 38 37 38 37 39 41 40 41 42 45 46 49 53
31 37 38 36 33 36 36 40 42 44 44 38 31 30 33 35 38 41 40 38 38 39 39 38 39 39 38 38 38 37 37 37 38 38 40 40 40 41 42 44 46 50 51
34 38 38 36 35 38 39 40 45 46 46 44 40 33 33 38 44 44 43 42 43 43 39 37 36 37 37 35 35 35 36 36 37 38 42 40 40 41 42 43 46 50 51
39 39 38 38 37 39 40 41 41 43 46 42 42 41 40 41 44 45 45 44 43 40 37 36 36 37 36 35 34 34 35 36 36 38 42 40 40 41 42 43 44 46 51
41 40 39 39 39 39 41 41 41 40 38 38 43 42 44 44 44 44 44 42 39 38 37 37 36 35 35 34 34 35 35 36 37 40 42 41 41 41 41 42 43 44 49
40 39 39 39 39 40 42 40 39 37 36 37 39 41 43 44 43 43 42 37 37 37 37 35 35 35 35 35 35 36 37 40 40 40 42 41 41 41 41 41 43 43 46
40 39 38 38 41 40 39 38 37 38 38 37 38 38 40 40 39 37 36 35 35 37 36 35 35 35 35 36 36 37 38 39 38 39 42 42 41 41 41 41 42 42 44
39 38 39 40 40 39 39 39 38 38 38 38 38 39 39 37 36 35 35 35 34 34 34 34 35 34 36 36 36 37 37 38 38 38 41 41 41 40 41 41 41 42 43
38 38 39 38 39 39 38 38 38 37 37 37 37 38 39 36 35 34 34 34 34 34 34 34 34 33 35 36 35 37 37 38 38 38 40 41 40 40 41 41 41 41 42
38 38 38 39 39 39 38 37 36 36 37 37 36 36 34 35 34 34 34 34 34 34 34 34 33 32 33 34 36 38 38 38 39 39 41 40 40 40 40 40 40 41 41
39 38 37 38 38 38 38 38 38 37 36 36 35 34 33 33 33 34 34 35 35 35 34 35 35 34 33 34 37 40 40 39 40 40 41 41 41 40 40 40 40 41 41
39 39 38 38 37 37 36 35 34 33 32 32 32 32 33 33 34 36 37 37 36 36 34 36 35 35 36 38 40 39 38 38 38 39 40 42 40 40 40 40 40 41 41
37 36 36 36 35 35 34 33 32 31 31 31 32 32 32 33 35 35 35 35 35 36 34 35 36 37 36 39 38 38 39 39 40 40 41 41 40 40 40 40 40 41 41

GFSGL_sfc_dewp_027.txt.gz
Dewpoint
29 31 38 38 40 41 42 43 40 38 42 44 42 41 39 38 39 39 38 38 36 36 37 37 36 35 36 36 36 35 34 34 32 33 36 37 37 37 37 38 39 37 39
32 34 35 36 39 42 43 42 41 40 37 43 42 41 39 38 38 38 37 37 35 35 36 36 36 35 34 35 35 33 34 34 35 33 36 37 36 37 37 37 37 36 38
33 34 34 34 39 43 43 42 41 41 39 37 40 40 39 38 37 37 37 36 36 35 35 35 35 34 33 34 34 34 34 35 37 37 36 37 37 37 36 37 38 38 38
30 32 32 34 43 43 42 42 42 42 42 42 42 41 40 38 37 37 37 35 35 35 35 35 34 33 32 32 32 33 35 36 37 37 37 37 37 38 38 37 36 38 38
30 30 32 34 38 45 44 43 43 42 43 44 46 42 39 37 36 37 36 34 34 34 35 35 35 36 41 36 34 37 38 38 38 37 37 37 37 37 35 36 36 37 38
28 29 31 32 34 35 44 45 43 43 43 45 47 44 39 36 44 45 39 33 33 32 33 33 34 41 40 41 40 44 41 38 38 37 37 37 37 36 38 37 38 39 38
28 28 31 30 32 40 45 43 42 44 45 45 46 45 39 37 47 48 45 33 32 31 31 31 30 35 39 35 40 42 42 40 40 37 37 37 37 37 37 39 39 41 42
29 30 29 30 35 39 38 38 40 44 44 45 45 45 38 37 48 48 46 32 31 30 31 31 30 32 38 36 34 34 35 37 38 38 38 37 38 38 40 41 43 44 45
29 29 30 34 36 37 37 38 39 41 43 43 44 45 37 35 48 49 42 31 30 31 32 33 33 34 41 42 36 35 37 38 41 43 43 43 44 45 44 44 44 43 42
29 31 31 31 35 36 37 37 39 40 41 42 43 46 41 34 48 49 37 31 31 32 33 36 41 36 41 41 36 37 37 38 39 39 38 39 42 41 45 44 44 43 42
31 31 31 31 34 34 36 36 38 39 38 41 44 46 39 35 45 48 43 30 31 33 33 36 40 43 42 41 41 38 39 41 41 38 38 39 39 41 43 42 44 45 44
32 31 31 31 32 34 37 37 37 37 37 41 43 44 37 38 46 46 44 38 38 33 33 34 37 46 43 42 41 42 42 42 38 38 38 37 39 41 40 41 44 47 48
32 32 31 31 32 34 38 37 36 35 39 41 43 43 37 39 43 47 45 43 42 34 36 39 45 47 43 42 42 41 40 38 37 37 36 37 41 40 40 44 46 48 53
30 30 30 31 33 37 38 34 37 39 40 40 43 41 39 40 42 40 38 41 44 41 45 43 43 43 43 41 41 40 39 37 37 36 36 38 40 40 41 45 45 48 53
28 30 32 34 35 38 36 35 38 41 42 41 43 38 39 39 41 42 41 38 39 41 40 39 39 38 38 38 38 38 36 36 36 35 36 40 39 40 42 44 45 49 51
28 31 33 34 39 38 36 37 41 46 46 46 47 41 39 42 47 46 45 43 43 43 38 38 38 38 36 35 35 34 35 36 35 35 38 40 39 41 42 43 44 47 51
31 33 34 37 39 38 37 38 38 46 47 47 46 45 43 45 46 45 45 44 45 41 38 37 36 37 36 35 34 34 34 35 35 36 42 39 40 41 41 42 43 45 51
34 37 36 40 39 38 38 38 41 42 41 43 45 43 45 45 45 44 44 43 40 39 38 37 36 37 35 34 34 35 34 36 38 38 41 40 40 41 41 41 42 43 48
36 38 39 39 38 38 38 41 42 42 41 41 41 44 45 45 45 45 43 38 37 37 37 37 37 35 35 35 35 35 36 38 39 38 41 39 40 41 41 41 42 43 45
39 39 39 38 38 38 40 40 40 39 39 40 40 40 41 41 39 37 37 37 37 37 36 36 35 35 36 36 36 36 37 37 37 39 39 39 40 40 40 41 41 42 43
38 38 41 40 40 40 40 40 39 38 38 39 39 40 40 38 36 35 35 36 37 36 35 35 34 36 36 36 36 36 36 37 37 37 38 38 39 39 40 41 41 42 42
37 38 39 39 39 40 39 39 38 38 38 38 39 38 39 36 36 36 35 34 35 35 35 35 34 36 35 36 36 36 37 37 37 37 38 39 38 38 40 40 40 41 42
36 37 39 39 39 40 39 39 39 37 37 38 38 37 36 36 36 35 34 34 34 34 35 34 34 34 34 35 38 38 37 38 38 39 38 37 38 38 39 39 40 41 41
37 36 36 38 38 38 38 38 37 38 37 37 36 36 35 34 34 34 34 34 35 35 35 35 36 34 33 38 40 40 40 40 39 39 38 38 38 39 39 39 40 40 41
38 38 37 37 37 37 38 38 38 38 37 36 34 33 34 35 36 36 36 36 36 35 36 36 36 34 40 40 39 40 39 39 38 39 40 40 40 38 39 40 40 40 40
37 37 37 37 37 36 36 35 35 34 34 33 33 33 34 36 36 36 36 36 36 35 36 37 38 38 39 39 39 39 39 39 39 40 40 41 40 40 40 40 40 40 40

GFSGL_sfc_dewp_033.txt.gz
Dewpoint
29 30 30 31 31 31 32 33 34 35 42 42 42 42 41 41 43 43 42 42 41 40 40 39 37 36 37 36 35 34 33 32 29 30 32 33 33 34 36 38 39 38 39
29 30 30 31 31 31 31 32 32 34 40 42 42 42 42 42 42 42 42 41 41 41 40 39 38 36 35 36 35 34 33 33 32 29 32 34 35 36 36 36 37 38 38
29 30 31 30 30 31 31 31 32 35 40 41 41 42 42 42 43 43 44 42 42 42 41 39 38 36 35 35 35 34 34 33 33 32 32 35 36 37 37 37 37 37 37
29 29 29 29 30 31 31 31 33 37 37 39 41 42 42 42 42 43 42 43 43 43 43 42 39 36 35 34 34 34 33 34 34 34 34 35 36 37 37 36 37 38 37
28 27 28 29 30 33 34 34 35 33 34 40 43 43 43 43 43 43 43 43 44 44 45 43 39 39 42 39 34 34 33 33 34 35 35 36 36 36 36 37 36 37 37
28 27 28 29 30 32 33 34 34 34 43 43 43 42 41 41 44 46 46 43 45 45 44 43 37 43 43 45 44 42 37 33 34 35 36 36 36 36 37 37 37 36 35
31 27 28 27 28 31 33 33 35 39 38 40 40 40 39 39 44 46 46 43 44 47 44 42 36 37 43 41 45 45 43 43 39 36 36 37 36 37 37 36 37 37 37
31 31 29 28 28 30 32 32 35 36 37 39 39 39 39 40 44 45 46 43 45 48 41 39 36 36 41 41 41 40 40 41 41 42 38 38 37 37 38 38 39 39 40
29 29 29 30 29 29 30 33 34 35 37 39 38 38 39 39 43 44 45 44 47 46 41 38 36 37 44 45 38 37 36 36 41 42 43 44 44 45 44 40 40 38 37
26 27 29 28 30 30 29 32 33 36 37 36 34 36 40 40 42 44 44 44 46 44 42 41 42 38 47 45 35 35 34 34 36 37 38 41 42 39 43 40 39 38 39
28 28 29 31 31 30 32 32 33 32 31 31 35 37 39 40 40 43 45 46 44 42 40 37 37 43 48 45 39 34 35 37 38 39 39 37 37 37 37 37 39 41 41
34 32 31 29 32 30 30 31 30 30 31 33 36 38 39 39 43 45 46 49 44 39 36 35 39 47 48 44 40 42 42 42 39 36 35 35 35 35 37 38 40 43 44
38 37 35 31 29 30 30 29 29 31 33 35 36 37 38 41 43 45 48 48 45 38 36 39 46 48 48 45 44 44 43 37 35 35 34 33 34 37 38 41 44 46 48
37 37 35 32 30 30 30 30 30 34 34 35 38 37 38 42 43 46 48 47 46 40 42 44 45 45 44 44 42 41 38 36 36 33 33 34 36 38 40 43 44 46 49
36 35 33 33 33 30 28 28 33 34 36 39 38 39 39 41 43 47 47 45 42 41 43 43 41 40 39 38 38 36 36 35 33 33 33 36 37 39 41 44 45 47 49
34 33 34 34 31 31 32 33 37 38 42 41 41 41 43 45 45 47 46 44 43 45 40 40 39 38 37 36 35 34 34 33 33 34 37 37 38 39 42 43 45 46 48
35 35 32 34 34 34 34 35 35 39 40 40 42 47 45 45 48 46 45 46 45 42 38 38 37 36 36 35 34 33 32 33 35 37 37 36 38 40 41 42 44 45 48
38 39 37 37 37 36 36 36 38 37 36 38 45 45 45 48 47 47 46 42 38 38 37 37 36 36 35 34 34 33 34 35 36 38 36 36 38 40 41 41 43 44 48
38 38 38 38 37 38 38 38 37 37 38 42 43 45 47 47 47 45 42 37 36 37 37 37 36 35 35 35 34 36 36 37 37 36 36 37 38 39 40 41 42 45 47
37 40 40 40 40 39 38 37 36 38 40 41 41 42 45 45 40 37 37 37 37 37 37 36 36 35 35 36 36 36 36 36 36 36 35 36 38 38 40 41 42 43 46
37 39 41 40 39 40 41 40 41 40 40 42 43 44 42 38 37 37 37 37 37 37 36 35 35 36 36 36 36 36 36 35 35 35 35 35 37 37 40 41 42 43 44
37 39 39 38 38 39 40 40 40 39 39 39 39 40 40 37 37 37 37 37 37 36 36 35 36 36 36 36 37 36 36 36 36 35 35 35 36 37 39 40 41 42 43
37 37 38 38 38 39 38 39 39 38 38 38 37 36 35 36 36 36 36 36 36 35 36 36 35 35 37 37 38 37 36 36 36 36 35 34 34 36 39 40 40 40 41
36 36 36 36 38 38 38 37 38 38 37 36 35 35 35 35 36 36 35 35 35 35 35 35 37 38 38 39 39 39 39 38 37 36 36 35 34 38 39 40 40 40 40
37 36 35 35 35 35 36 37 37 37 36 36 35 35 35 35 35 35 35 35 35 34 35 37 38 38 38 39 40 39 39 38 37 38 37 37 38 39 39 40 39 39 40
36 36 35 35 35 35 35 35 36 36 37 37 37 37 36 36 36 35 35 35 35 35 37 38 38 38 39 39 39 39 38 37 38 39 37 37 36 38 39 39 39 38 39

GFSGL_sfc_dewp_036.txt.gz
Dewpoint
29 29 29 29 30 31 31 31 33 35 36 38 40 42 42 42 41 42 42 43 43 42 42 41 40 39 38 37 35 33 32 31 29 29 30 31 33 33 35 38 41 41 42
30 29 29 29 30 30 30 30 32 32 34 36 41 41 42 42 42 42 41 42 42 42 42 41 40 39 38 37 36 33 32 32 32 29 31 32 32 34 34 35 37 37 39
30 29 29 30 30 29 29 29 31 31 31 36 38 39 41 42 42 42 42 42 42 42 42 42 41 41 41 38 37 35 34 32 32 32 31 33 34 35 36 37 37 37 37
30 30 30 30 30 28 29 30 31 31 32 35 35 38 40 42 42 42 42 42 42 42 43 43 43 41 42 41 36 36 34 34 33 33 32 33 34 36 37 36 36 37 37
31 32 33 32 30 30 30 31 31 32 33 34 35 39 42 42 42 41 42 42 42 43 44 44 43 45 47 43 39 36 34 33 33 33 33 34 35 35 35 36 36 37 37
30 30 31 33 32 30 30 31 32 32 33 35 41 40 39 41 43 42 40 38 41 43 43 44 45 47 47 50 49 45 38 33 32 33 34 33 34 35 36 36 36 36 35
27 27 28 29 31 31 31 30 31 33 34 37 38 38 38 40 43 42 41 38 39 39 41 42 44 44 47 46 49 48 44 43 39 33 33 33 34 36 37 36 36 36 37
27 27 26 27 28 30 30 30 32 34 35 36 36 37 38 39 42 40 41 40 39 41 42 42 43 44 42 45 45 42 40 40 39 36 34 35 36 38 38 37 38 38 39
28 29 29 28 28 28 29 32 32 33 34 35 36 37 38 37 40 40 40 40 41 42 43 42 44 44 44 47 44 41 40 40 44 44 41 43 44 43 41 40 40 39 38
31 32 33 33 32 30 30 31 34 33 33 35 36 37 37 33 37 40 41 41 41 42 42 42 46 44 46 48 44 40 39 37 39 39 40 42 42 41 43 41 39 38 37
36 38 37 38 36 35 33 31 32 35 32 33 32 32 33 35 37 42 43 41 42 42 42 43 43 46 48 48 46 39 38 37 39 36 38 38 37 37 37 36 37 38 38
38 38 37 38 37 35 34 31 30 31 30 31 31 32 35 37 41 42 43 45 45 44 43 43 44 48 48 47 43 43 43 41 39 38 36 35 35 34 34 36 38 41 42
39 38 36 36 37 34 34 31 30 30 31 31 32 34 35 38 39 42 46 46 46 45 43 43 45 46 47 45 43 44 44 38 36 34 34 33 33 34 35 38 41 44 46
38 36 34 33 34 33 31 31 30 31 30 31 34 34 37 39 39 42 43 45 47 44 44 44 45 45 43 44 44 41 37 36 35 33 32 33 35 37 38 42 44 45 47
37 37 36 32 33 34 35 33 30 29 32 33 35 36 39 39 40 43 44 43 43 43 45 45 43 41 40 38 36 37 37 35 33 33 34 35 36 38 41 44 45 46 47
36 36 36 36 34 36 33 33 36 37 38 39 41 40 39 42 44 46 46 44 46 46 42 40 39 39 37 35 35 35 34 35 34 35 36 36 37 40 41 43 45 48 46
36 37 37 38 37 36 35 35 35 35 38 40 39 42 44 46 45 46 46 47 45 43 40 39 37 36 35 35 34 33 33 35 36 36 35 36 39 40 42 42 45 47 46
37 39 37 37 38 38 37 36 36 36 36 37 40 45 45 46 46 46 46 44 40 39 38 36 36 35 35 34 34 35 36 37 36 35 35 38 39 40 41 42 44 47 47
37 37 39 40 40 39 38 38 38 38 37 38 43 45 46 47 46 44 41 37 37 37 36 36 36 35 34 35 37 37 37 36 35 35 37 38 39 40 40 42 44 47 47
37 40 40 38 39 39 39 38 37 37 38 41 42 44 42 40 38 37 37 38 37 37 37 36 35 35 36 37 37 37 36 35 34 35 36 37 39 40 41 42 44 46 47
37 37 40 37 38 40 41 40 40 40 40 41 42 41 41 38 37 37 37 38 38 38 36 36 36 36 37 37 37 36 35 34 34 34 36 37 38 39 41 42 43 46 47
36 36 37 37 38 39 39 39 39 39 39 39 40 39 40 37 37 37 37 36 37 37 36 35 36 36 37 38 37 36 35 34 34 34 35 36 38 40 41 41 42 43 45
36 35 35 36 37 38 37 38 38 38 38 38 37 37 37 37 38 37 36 37 36 36 36 36 36 37 38 38 38 37 36 35 34 34 34 35 38 40 40 41 41 41 43
36 35 35 35 36 37 37 37 38 38 37 36 35 36 36 37 37 35 36 36 35 36 37 38 38 38 38 38 38 38 37 36 36 35 34 35 38 39 40 40 40 40 42
36 35 35 35 35 35 36 36 37 37 37 36 36 36 37 37 37 36 35 35 36 37 37 38 38 39 39 39 39 38 38 38 37 37 36 37 38 39 39 39 39 39 41
35 35 34 35 35 35 35 35 35 36 37 37 37 37 37 37 37 36 35 35 36 37 38 38 38 39 39 38 37 37 37 38 38 38 37 37 37 38 38 38 38 38 39

GFSGL_sfc_dewp_039.txt.gz
Dewpoint
29 30 30 31 30 30 30 31 33 34 33 35 35 36 36 39 40 41 40 41 42 42 42 42 44 44 43 42 40 38 38 37 37 37 34 34 33 35 34 40 41 41 41
30 30 30 31 31 31 29 31 31 31 32 33 34 34 35 38 37 37 39 39 41 41 41 40 41 42 44 43 41 40 38 37 36 38 34 33 34 35 35 39 38 36 38
29 30 31 31 32 32 31 32 31 30 30 31 32 33 35 37 37 39 41 42 41 39 39 39 39 40 42 43 42 43 42 40 34 37 36 33 34 35 35 36 37 36 36
29 30 31 31 32 33 33 33 32 31 30 30 30 32 35 36 39 41 42 41 38 38 38 40 40 41 41 44 44 43 43 44 37 36 35 34 34 37 36 34 35 37 36
27 28 29 29 30 31 32 33 32 31 31 30 31 32 33 35 38 38 40 41 40 39 39 39 42 44 47 46 44 45 44 42 41 37 35 35 35 36 35 36 35 35 37
28 28 30 30 30 30 30 30 31 32 31 32 33 34 34 36 40 41 40 39 39 38 38 39 40 45 45 47 48 48 45 42 39 37 37 35 34 35 36 36 36 37 34
28 28 28 29 30 30 30 30 31 32 33 35 35 35 36 38 42 41 41 38 37 35 36 37 40 37 43 43 47 49 50 47 46 37 37 35 34 35 37 37 38 38 36
31 31 31 30 30 30 31 31 31 32 34 34 35 35 37 36 41 42 41 37 36 36 36 38 39 40 42 43 44 47 48 50 48 43 37 36 35 36 37 36 37 40 39
34 34 35 35 34 36 36 33 34 33 32 34 35 35 36 36 40 40 38 36 37 39 40 39 40 41 44 45 44 47 46 47 49 47 43 41 41 42 39 40 40 40 39
34 36 37 38 39 37 34 37 36 37 37 37 34 34 37 35 39 39 37 36 38 39 41 41 42 42 45 45 44 46 45 44 45 42 40 41 43 44 45 41 42 41 40
35 37 38 40 39 37 36 35 37 38 35 35 35 33 34 34 34 38 39 38 39 40 40 42 43 44 45 45 47 46 45 45 43 43 43 43 43 42 41 41 41 41 39
38 38 38 39 39 37 36 37 35 35 32 32 32 32 33 33 36 39 41 41 43 42 42 42 43 45 45 46 48 48 47 45 42 40 39 39 39 37 36 34 36 40 42
38 36 38 39 38 36 33 33 35 34 32 32 31 32 33 34 37 39 41 43 43 44 44 45 45 45 47 48 50 48 47 41 39 38 37 38 36 32 34 37 41 43 43
37 37 38 38 37 37 31 32 33 33 32 31 31 32 34 35 37 40 41 42 43 44 45 46 45 45 48 47 46 45 41 39 39 37 34 34 36 37 39 42 43 45 46
37 37 37 37 37 37 35 34 35 34 33 32 33 34 35 36 38 42 42 42 44 44 45 45 45 44 42 41 40 40 40 37 35 35 36 37 37 40 41 44 44 46 46
36 37 37 37 37 38 37 36 39 39 39 39 39 39 40 41 42 43 44 45 45 45 43 41 40 40 39 38 37 36 36 36 37 37 37 38 39 40 42 44 46 48 45
36 37 38 38 37 37 37 37 36 38 38 39 40 42 43 43 46 45 45 46 45 43 40 40 39 39 38 36 36 35 36 38 37 37 39 39 40 41 42 44 47 46 46
37 40 38 38 38 39 38 38 38 37 37 38 40 43 45 46 46 45 43 42 40 40 39 38 37 37 36 36 37 38 37 36 36 38 39 39 40 41 42 44 47 46 46
37 37 38 39 38 39 40 39 38 38 38 38 43 45 44 44 43 43 41 38 38 38 37 37 36 36 37 38 38 38 37 36 36 38 38 39 40 41 42 43 48 47 47
37 39 39 37 37 39 40 38 38 38 39 41 40 40 40 40 39 39 38 38 37 37 37 37 38 38 39 38 38 37 36 35 36 37 38 39 41 41 42 44 48 47 47
37 36 39 36 36 37 39 39 41 41 40 40 40 40 40 38 38 38 38 38 37 37 37 38 39 38 38 38 37 36 35 35 36 37 38 39 41 41 42 45 48 47 47
36 36 35 35 37 36 38 39 39 39 38 38 39 39 39 37 38 38 38 39 39 39 39 38 37 38 37 37 37 35 35 35 36 37 38 39 41 41 42 44 46 47 47
36 36 35 35 36 38 37 38 38 38 38 38 38 37 37 37 38 38 38 38 38 38 38 38 38 38 38 38 38 38 37 36 36 37 38 39 40 40 41 42 43 45 46
36 35 35 35 36 36 36 37 38 38 38 38 37 37 37 38 38 37 38 39 39 38 39 39 39 38 38 38 38 39 38 38 38 39 39 39 39 40 40 40 41 43 46
35 35 34 35 35 35 35 36 37 38 38 38 37 37 37 38 38 38 38 39 39 38 38 39 39 38 38 38 37 37 38 37 37 38 39 39 39 39 39 40 41 42 45
35 34 34 34 34 35 35 35 34 35 36 37 37 37 37 37 38 37 38 38 38 39 39 39 38 37 36 37 36 36 38 38 38 38 39 39 38 38 38 38 39 41 43

GFSGL_sfc_dewp_042.txt.gz
Dewpoint
23 26 26 27 27 28 28 29 31 31 29 30 32 33 32 31 31 30 32 35 35 36 37 38 39 40 41 43 44 44 42 42 40 41 42 39 37 36 34 39 39 39 42
27 27 27 28 28 28 29 29 29 30 30 31 30 32 30 30 31 30 32 31 32 34 34 37 38 36 39 42 43 44 43 42 41 41 42 41 37 37 36 38 36 36 40
27 27 28 28 28 28 28 29 29 29 30 30 29 30 31 31 30 31 31 30 30 31 34 36 38 37 37 38 40 42 44 42 42 44 42 41 38 37 36 37 39 39 35
28 28 29 28 29 29 30 29 29 28 28 29 29 29 33 32 32 32 32 34 36 38 36 37 36 37 38 39 38 39 41 45 45 42 42 43 40 38 38 36 37 37 35
28 28 29 29 29 30 30 30 30 29 28 29 30 30 32 32 31 34 37 36 35 35 35 35 36 38 41 41 39 39 42 42 47 44 42 41 41 37 38 36 35 35 35
29 30 32 34 34 33 32 31 31 31 30 29 30 32 32 30 37 38 39 35 34 34 34 34 35 39 40 44 46 46 45 45 44 45 43 43 40 39 39 37 36 35 34
30 30 31 33 33 35 35 34 32 33 32 31 30 33 36 35 38 39 41 40 35 33 33 34 34 31 39 37 42 46 46 48 48 45 43 43 40 40 39 39 39 39 36
30 31 33 32 34 36 38 37 36 36 35 33 32 32 35 35 39 40 41 40 38 35 34 35 35 34 35 36 39 42 43 44 48 47 45 44 41 40 38 39 39 38 38
30 32 32 33 35 37 39 39 39 39 35 35 33 34 33 32 37 39 40 39 38 35 34 34 34 34 38 40 40 43 42 43 47 51 49 47 46 47 44 39 37 37 36
30 32 33 35 38 37 39 39 39 37 36 36 38 36 37 35 37 39 39 37 34 33 33 33 39 39 41 41 42 43 42 43 46 47 50 49 47 46 46 39 39 37 36
33 34 35 38 38 39 39 39 39 37 38 35 36 35 34 34 33 38 39 35 33 31 32 35 35 40 41 44 45 44 43 44 47 46 47 44 41 41 41 39 38 39 39
35 36 36 38 38 40 39 38 36 33 33 34 31 32 32 29 34 36 38 38 38 37 38 39 40 42 43 44 44 45 46 46 46 46 44 42 41 42 41 42 42 43 42
35 35 37 39 39 39 39 38 36 32 33 32 30 29 29 28 30 35 37 39 40 39 41 43 43 44 45 45 46 45 46 46 45 45 44 43 41 39 38 37 36 39 40
35 35 37 38 39 39 39 39 38 35 36 33 31 31 32 32 33 36 38 39 41 42 43 43 43 45 46 46 45 45 46 45 45 43 42 40 39 35 32 34 39 44 44
35 35 36 38 38 38 38 39 38 37 37 37 36 35 35 36 37 39 40 39 41 42 42 43 41 42 44 44 45 44 44 44 43 43 39 35 34 34 34 42 45 45 45
34 35 37 37 37 38 38 39 41 41 41 40 40 39 39 40 43 44 44 44 44 44 42 43 42 41 41 40 40 40 40 40 38 36 35 34 34 37 42 44 45 46 46
35 37 37 37 37 37 37 37 37 38 41 41 42 43 43 46 46 46 45 45 44 45 41 40 39 39 38 38 38 38 37 38 37 36 37 39 41 42 43 44 45 46 45
37 40 37 37 37 37 38 39 38 38 37 38 44 44 45 44 44 43 42 41 40 40 39 38 38 39 39 38 38 37 38 38 38 40 41 41 41 42 43 46 47 45 45
36 37 37 37 37 38 39 40 39 39 40 40 41 43 43 43 43 43 41 39 38 37 38 38 38 38 38 39 39 38 37 37 39 39 39 40 41 43 44 47 46 45 45
36 39 39 37 36 36 39 41 41 40 40 40 40 40 40 40 39 38 39 37 37 37 38 38 38 37 38 37 36 37 36 38 38 38 39 40 42 43 45 47 46 45 45
36 36 39 36 36 36 39 40 40 39 40 40 40 40 40 38 37 37 37 37 38 39 39 39 38 37 36 36 36 36 37 37 38 39 39 41 42 43 47 47 48 47 46
36 36 36 36 36 37 38 40 40 39 39 39 39 40 40 38 38 37 38 39 40 40 40 38 38 38 37 36 35 35 36 37 37 38 40 41 42 43 47 48 47 47 46
36 35 35 36 37 38 38 39 39 39 39 39 39 38 38 38 38 38 39 40 40 40 39 39 39 35 35 35 36 37 37 37 39 40 40 40 41 42 44 47 47 47 46
34 36 35 35 36 36 36 37 38 38 38 38 37 37 37 37 38 39 39 40 40 39 39 39 37 35 35 34 35 37 38 39 40 40 40 40 40 41 42 44 47 46 46
35 35 35 35 35 35 35 35 35 37 38 37 37 37 37 37 39 39 39 40 39 39 38 37 36 35 34 34 35 37 38 37 39 40 40 40 39 40 41 43 46 46 46
35 35 35 35 35 35 35 35 35 35 36 36 37 37 38 38 39 39 39 39 39 38 37 37 35 34 33 34 36 37 37 37 38 39 40 39 39 39 40 41 43 45 46

GFSGL_sfc_dewp_048.txt.gz
Dewpoint
22 24 25 26 27 28 28 29 29 30 29 30 30 30 30 30 31 31 30 31 31 32 33 32 32 33 42 42 42 42 44 45 42 42 44 48 51 52 47 43 46 45 52
23 24 26 28 28 28 29 29 29 30 31 31 30 30 30 30 30 30 31 32 30 30 31 32 31 30 38 40 41 40 39 47 45 41 43 43 47 51 51 45 42 43 48
25 26 27 28 29 29 30 31 31 32 31 32 31 31 31 31 30 30 30 31 31 31 31 31 31 32 34 36 39 42 40 39 45 44 43 44 45 46 50 46 40 39 43
26 27 29 30 30 30 31 31 31 31 31 32 33 33 34 33 32 31 30 30 32 33 34 36 35 34 33 35 40 43 42 42 43 45 45 43 44 45 46 43 41 41 39
26 28 29 30 30 30 31 31 31 33 32 33 33 34 35 35 34 32 30 31 34 34 35 36 38 40 42 39 35 40 41 41 43 44 42 42 42 43 43 43 41 41 40
26 27 29 30 30 30 31 31 31 31 32 34 35 36 38 38 42 42 38 35 34 36 36 39 38 41 43 45 45 45 44 40 40 43 44 42 41 42 43 44 40 40 39
27 28 29 29 29 30 31 32 33 33 34 35 38 39 39 39 43 45 42 37 36 37 39 40 39 40 41 42 44 45 44 43 43 40 43 44 41 42 44 43 40 40 39
27 28 29 30 30 31 33 32 33 35 37 39 39 39 38 38 43 41 40 37 38 38 39 40 41 40 41 41 43 38 36 37 39 40 40 43 42 42 43 44 41 39 40
27 27 29 31 31 32 32 34 36 37 38 39 40 37 36 37 41 39 39 37 38 38 39 40 39 39 43 45 41 40 37 37 42 44 44 45 48 48 46 44 43 40 40
28 29 31 31 32 34 34 35 36 37 38 38 39 38 39 38 39 39 38 37 37 38 40 39 41 40 41 43 40 36 36 37 38 37 39 43 45 46 50 46 44 41 39
29 31 31 33 34 34 35 36 36 37 38 38 39 36 36 34 34 38 38 37 38 37 38 37 38 42 43 42 42 36 36 38 40 40 41 41 43 46 47 48 46 43 42
31 32 32 33 34 34 35 36 38 39 38 38 38 38 37 33 36 36 37 36 37 37 36 37 37 40 40 41 41 40 40 40 40 40 41 41 42 45 46 46 47 47 44
31 32 33 33 35 35 36 38 38 38 38 37 38 38 37 35 35 38 37 36 37 34 36 38 38 38 38 38 39 40 41 39 40 41 41 42 44 45 46 46 46 47 45
32 33 33 34 35 37 38 38 38 37 37 38 38 38 38 38 37 37 33 33 35 36 38 38 38 38 38 39 39 41 40 42 42 42 42 43 44 44 44 44 44 43 45
33 33 33 35 37 37 38 38 38 40 42 42 41 40 39 38 40 41 40 35 35 36 37 40 40 39 39 39 39 41 42 44 43 44 44 45 44 44 43 43 43 43 43
33 32 36 37 37 37 37 37 41 43 44 45 44 44 43 43 44 45 45 42 39 39 38 38 39 39 39 39 39 40 41 43 43 43 44 44 44 44 44 44 44 42 41
33 34 37 37 36 36 36 36 37 41 43 43 44 44 44 44 43 44 44 42 42 42 39 40 39 40 40 40 39 39 40 43 42 43 43 44 44 44 43 42 42 42 42
34 38 37 36 37 36 36 39 40 40 39 40 42 42 43 43 43 43 42 42 40 41 40 40 39 40 40 40 41 41 42 42 43 44 43 43 43 42 41 42 43 42 41
34 36 37 37 37 38 39 40 40 40 39 39 39 39 40 42 41 42 42 39 38 38 38 38 39 39 39 40 40 41 41 41 42 42 42 42 42 42 42 43 43 43 43
35 39 39 37 36 37 39 39 39 39 38 38 38 38 38 39 38 38 38 38 38 37 38 38 38 38 39 40 40 40 39 39 39 40 40 41 41 42 42 43 43 43 45
35 36 39 36 36 36 38 38 38 38 37 37 37 40 41 39 38 38 38 38 37 37 38 38 38 38 38 38 38 38 38 38 39 39 40 40 42 42 43 44 44 47 46
35 36 36 36 36 36 37 38 37 36 36 36 36 38 41 39 38 38 38 38 37 37 36 36 36 37 38 38 38 38 37 37 38 39 40 41 42 43 44 46 46 46 46
36 36 36 36 36 37 36 36 36 36 36 36 37 37 38 38 38 38 38 37 36 35 35 36 36 36 37 38 39 39 38 38 39 40 40 41 43 44 47 46 46 45 45
35 35 35 35 36 35 36 35 35 36 36 37 37 37 37 38 38 38 37 36 35 34 33 33 33 34 36 38 39 40 40 40 41 40 41 43 45 46 46 46 45 45 46
35 35 35 35 35 35 35 35 35 35 37 37 37 38 38 38 38 38 37 36 35 33 31 31 31 33 35 38 39 39 39 39 40 40 42 44 45 46 46 45 45 46 45
35 34 35 35 35 35 34 34 35 36 36 37 37 37 38 38 38 37 36 35 33 32 31 30 31 33 35 37 38 39 39 39 40 40 42 44 45 46 46 46 46 46 45

GFSGL_sfc_dewp_051.txt.gz
Dewpoint
21 23 25 26 28 28 29 29 30 31 31 33 33 32 31 31 31 30 30 30 30 31 32 32 33 33 34 35 43 43 43 44 40 40 43 45 47 51 52 50 52 52 51
23 25 26 28 29 29 30 30 31 31 32 31 31 31 31 32 32 31 31 30 30 30 31 33 32 31 33 35 38 41 42 46 45 41 43 43 46 48 50 52 49 49 52
25 26 27 29 30 29 30 30 30 30 30 30 31 32 32 33 33 33 33 32 31 30 30 32 32 33 33 33 39 42 43 42 44 42 42 44 45 47 48 51 48 46 50
26 27 28 29 29 31 30 30 30 30 30 30 32 31 32 33 33 34 34 34 33 32 31 33 34 35 35 37 39 40 42 42 41 42 42 42 44 45 44 46 48 46 46
26 27 28 30 30 29 29 30 29 30 29 31 31 32 34 35 34 37 38 37 35 34 33 34 37 39 43 42 39 38 42 41 41 40 41 41 42 43 42 44 43 45 45
27 27 29 29 28 29 30 30 30 32 32 32 32 34 35 35 41 43 41 39 39 40 37 37 36 39 41 46 46 46 45 41 41 41 41 41 40 41 43 43 43 41 40
27 27 28 28 28 30 31 30 31 32 31 32 34 36 36 37 41 44 43 38 39 39 39 40 38 38 41 39 43 42 43 47 44 43 43 42 40 42 42 41 42 42 40
27 27 28 28 29 31 30 30 31 33 35 36 37 36 37 38 43 43 42 38 38 38 39 38 39 39 40 42 41 40 41 43 43 43 43 42 42 42 43 42 42 42 43
27 28 28 29 30 30 30 32 34 35 36 36 36 36 37 37 42 42 40 38 37 37 38 38 39 39 42 44 41 40 39 40 42 47 47 46 47 47 45 44 43 41 40
28 29 29 29 29 31 33 34 35 35 36 36 37 38 40 39 41 42 40 37 36 37 38 39 41 40 42 42 40 40 39 40 39 41 42 43 44 45 48 44 43 42 39
29 29 30 29 32 33 34 35 36 37 38 39 39 39 40 40 39 42 41 37 37 36 37 37 39 41 41 41 42 42 40 40 41 38 38 39 39 41 43 46 45 44 42
29 31 31 31 33 33 34 36 37 38 38 38 38 38 39 39 42 42 41 39 37 37 37 38 38 40 41 41 42 44 43 42 39 39 38 38 39 40 43 45 47 46 44
30 31 32 32 32 33 36 37 37 38 37 37 38 38 38 39 40 42 43 41 39 35 37 39 40 40 39 40 41 42 42 41 41 39 39 39 40 42 43 45 47 48 46
31 32 32 32 35 37 38 38 37 37 37 40 41 40 40 40 40 41 40 40 39 37 36 38 39 39 39 38 37 38 39 39 39 38 39 40 42 42 44 46 45 45 46
33 32 32 33 37 37 37 37 38 39 42 42 42 42 41 40 41 44 43 40 38 35 36 38 38 38 36 36 37 38 40 40 41 40 41 41 42 44 44 46 45 45 44
33 32 34 37 37 37 36 36 41 43 43 43 43 43 42 43 44 44 44 45 41 37 36 35 35 37 36 36 37 38 39 40 41 41 43 43 43 44 44 44 44 43 43
33 34 36 37 36 36 36 36 38 40 42 41 42 43 43 43 43 43 42 41 39 38 36 36 37 38 39 39 39 37 37 40 40 41 42 43 44 43 43 43 43 43 42
34 36 36 37 36 36 36 38 39 39 37 38 41 42 42 42 42 42 42 41 38 40 39 38 38 40 40 40 41 39 39 39 40 42 43 43 43 43 43 43 43 42 43
35 35 37 37 37 37 37 38 39 38 37 37 39 40 41 41 41 41 41 37 36 36 36 36 38 39 39 40 41 41 42 41 41 40 41 42 43 43 43 42 43 43 43
33 36 38 37 36 36 37 38 37 36 36 36 36 38 39 39 37 37 38 38 37 37 37 37 38 39 39 39 39 40 39 40 40 41 42 43 43 43 42 43 43 42 42
34 35 39 36 36 36 37 36 36 36 35 36 37 39 41 38 37 37 36 36 36 36 36 37 37 38 38 38 38 38 39 39 39 40 40 41 42 42 43 43 43 43 43
34 36 36 35 36 36 36 36 36 36 35 35 37 38 40 38 38 36 35 35 35 35 37 37 37 38 38 37 37 36 36 37 39 39 40 40 41 42 42 42 42 42 42
35 35 35 35 36 37 36 35 35 36 36 36 37 37 37 37 36 34 34 34 33 33 33 35 36 37 38 38 39 39 37 37 38 40 40 41 41 42 42 42 42 44 46
34 35 35 35 35 35 35 35 35 36 36 37 37 37 37 38 35 35 34 33 32 31 31 33 35 36 36 37 39 40 40 40 41 40 40 41 42 43 43 46 46 45 46
34 35 35 35 35 34 34 35 35 36 36 36 36 37 37 36 34 34 34 33 32 30 30 32 35 36 37 38 39 39 39 39 41 41 42 43 45 46 46 46 46 46 45
34 34 34 35 35 35 34 34 35 36 36 36 37 37 36 36 34 34 33 32 31 30 30 31 35 37 37 38 38 39 39 40 41 42 44 46 46 45 46 46 45 45 45

GFSGL_sfc_dewp_054.txt.gz
Dewpoint
22 24 25 26 27 29 29 30 30 31 32 31 31 31 31 31 31 31 32 31 30 30 30 30 30 33 33 33 36 37 37 40 38 37 41 42 44 47 50 51 52 53 54
24 25 26 27 29 29 29 30 31 31 30 30 30 31 31 31 32 32 32 33 33 32 32 31 30 30 32 34 35 35 37 41 41 38 41 42 43 46 48 49 49 51 52
25 26 27 28 29 29 30 30 29 30 30 30 30 30 30 31 32 31 32 33 33 33 33 32 32 31 32 33 36 36 37 38 43 42 42 44 44 45 46 48 49 48 52
26 27 28 28 29 30 30 28 29 29 29 30 30 31 31 32 32 32 33 33 34 34 34 34 33 32 32 36 38 40 40 41 43 43 42 44 43 44 45 45 45 46 48
27 28 28 28 30 30 29 29 29 30 30 29 31 32 32 32 32 34 35 35 37 37 37 37 35 36 39 39 39 40 41 41 40 42 42 43 42 41 42 45 44 45 46
27 27 28 28 28 28 29 30 30 31 30 30 31 32 32 33 39 40 40 38 39 39 39 38 39 41 41 42 43 44 44 41 40 40 41 40 40 41 42 43 43 40 42
26 27 27 28 28 29 29 29 30 30 31 32 33 34 35 36 41 42 42 40 39 39 39 39 38 40 41 39 41 42 42 48 46 41 40 40 40 41 42 41 42 41 40
27 27 28 28 29 29 28 29 30 31 33 35 36 35 35 36 42 44 43 40 40 38 38 38 39 39 40 40 40 41 42 43 43 45 43 42 42 44 44 43 43 42 42
27 28 28 28 29 29 29 31 32 34 35 35 36 36 37 39 44 45 43 40 40 38 38 37 38 38 41 42 40 40 40 41 43 45 45 45 45 45 46 44 41 40 39
27 28 28 29 30 30 31 32 33 34 35 37 38 39 41 40 43 44 42 40 38 37 37 37 40 39 42 41 41 42 39 38 39 40 43 44 47 46 48 43 42 40 39
28 28 29 30 31 32 32 33 35 37 38 38 39 39 39 40 41 44 44 41 39 36 36 36 37 41 41 42 42 41 40 40 40 40 41 42 42 42 44 44 43 42 40
29 29 30 31 32 32 33 37 38 38 37 37 38 39 40 41 43 44 44 44 42 37 36 37 38 41 41 41 41 44 44 43 41 39 39 38 37 38 40 42 45 44 44
30 31 32 32 31 33 37 37 37 37 37 37 38 40 40 41 42 44 44 44 44 40 36 38 40 41 40 40 41 43 42 42 39 37 37 37 38 38 39 41 45 47 44
31 32 31 31 34 36 38 38 37 37 37 39 40 40 40 40 40 42 42 42 42 42 40 38 39 40 40 40 39 42 43 42 40 38 38 39 39 39 41 42 43 45 44
31 31 30 33 35 37 37 37 38 39 42 40 40 40 39 39 41 43 44 41 40 39 37 38 37 36 36 35 36 37 38 41 39 38 38 38 39 40 42 42 43 44 44
32 31 33 35 36 37 36 36 41 43 42 42 42 41 41 43 43 43 45 43 41 40 35 34 34 37 34 34 35 35 37 38 39 39 39 39 40 41 42 44 43 42 42
33 34 34 35 36 36 36 35 36 40 42 42 42 41 41 42 42 42 43 41 38 37 34 33 33 34 35 35 35 35 36 38 38 40 40 41 42 43 42 42 43 43 42
34 35 34 37 36 36 36 36 38 36 36 37 41 41 41 41 42 42 41 39 36 37 37 37 38 40 40 39 40 39 39 37 38 39 40 41 41 42 43 42 43 42 43
34 33 35 37 37 37 37 37 37 36 36 36 38 40 40 40 38 39 40 36 35 35 36 37 38 38 39 40 41 41 40 39 39 39 40 41 42 42 42 42 42 44 43
33 34 36 36 36 36 36 36 35 35 35 36 37 38 38 38 34 34 35 36 35 35 35 36 36 37 38 39 39 40 41 41 41 40 40 41 42 43 43 42 42 43 43
33 34 36 36 35 36 36 35 35 35 35 36 37 39 38 35 34 34 33 33 34 34 35 35 36 37 37 36 37 37 38 39 40 41 40 41 41 41 43 43 43 44 43
34 34 34 35 36 36 36 36 35 35 36 36 36 38 38 34 34 33 33 33 33 34 35 35 35 36 36 36 37 36 36 37 39 40 41 42 43 43 43 43 43 43 43
33 34 34 35 36 37 35 35 35 36 36 36 37 37 35 34 33 32 32 32 32 33 34 35 34 34 36 36 38 38 37 37 38 40 40 41 41 42 42 42 41 41 41
33 34 34 34 35 35 34 34 35 36 36 36 36 36 34 34 33 32 32 32 32 32 34 34 35 35 35 35 38 39 40 39 39 39 41 41 40 41 42 41 41 40 39
32 34 34 34 34 34 34 34 35 35 36 36 36 35 35 34 33 32 32 32 32 32 34 34 35 35 36 36 38 40 40 39 40 40 41 42 42 42 42 42 41 42 45
33 34 34 34 34 34 34 34 34 35 36 36 34 35 34 35 34 33 33 32 31 33 34 34 35 35 36 37 38 39 40 40 40 40 42 43 43 43 45 46 46 45 45

GFSGL_sfc_dewp_057.txt.gz
Dewpoint
23 24 25 26 27 28 29 30 30 31 31 30 30 30 30 30 31 31 31 31 31 32 32 31 31 31 32 32 35 36 35 36 33 33 35 39 42 44 47 50 51 52 54
25 25 26 27 28 28 29 29 30 30 29 29 30 30 30 30 30 30 31 31 32 32 32 33 33 32 32 32 32 33 35 37 38 36 37 40 41 43 45 46 49 51 53
25 26 27 27 27 28 28 29 30 29 28 29 30 30 30 30 31 30 30 31 31 31 32 33 33 32 32 33 32 32 33 35 39 39 39 41 43 42 44 46 47 48 52
26 27 27 27 28 28 29 30 29 28 29 30 30 31 30 30 31 31 31 32 32 32 33 34 34 34 34 34 33 35 37 39 39 40 40 41 41 42 46 44 46 45 48
27 27 27 28 28 29 29 29 29 29 30 30 30 30 31 31 32 32 32 33 35 36 36 36 38 38 41 41 35 35 36 38 40 40 40 41 40 41 43 43 44 44 44
26 26 27 28 28 28 29 29 29 29 28 29 30 31 32 33 39 41 42 39 39 39 38 38 38 42 42 43 42 43 42 38 38 39 39 40 39 41 43 43 43 44 43
26 27 27 27 28 28 29 29 29 29 30 31 32 34 35 35 42 44 44 42 41 40 41 40 39 38 41 39 42 43 43 43 43 40 41 40 40 42 43 43 42 42 42
27 27 27 28 28 28 29 30 30 30 31 33 35 35 35 36 43 45 46 43 42 41 41 41 38 38 39 39 39 38 39 40 41 42 43 41 41 43 44 44 42 42 42
26 27 27 28 28 29 30 30 31 32 33 34 36 37 38 39 44 46 44 42 41 41 40 39 38 37 41 41 39 39 39 40 43 44 44 46 46 47 46 44 41 40 39
26 27 28 28 29 30 31 32 32 33 36 39 39 39 41 41 43 45 44 43 41 40 40 38 41 39 42 42 39 39 39 39 40 41 43 45 44 44 47 43 42 39 39
27 28 29 30 31 32 31 32 35 38 38 38 38 39 39 40 41 46 44 43 42 40 39 37 37 40 40 40 40 40 41 41 41 40 41 43 43 44 46 44 43 41 39
28 29 30 31 32 30 32 36 38 38 37 37 38 38 40 41 42 42 44 44 44 42 38 37 36 40 40 40 40 44 44 43 39 40 39 40 39 41 44 44 43 43 42
29 30 30 30 30 32 34 37 37 37 37 37 38 38 39 39 40 44 46 46 46 43 39 38 40 40 40 40 42 42 43 43 40 39 39 38 38 38 40 42 43 43 43
29 30 31 29 32 32 36 38 37 37 37 39 39 39 39 39 40 42 42 43 43 42 42 40 39 39 40 40 40 41 43 43 40 39 38 37 38 38 39 40 42 42 41
30 31 32 32 33 34 36 38 38 39 40 39 39 40 39 38 40 42 42 41 40 39 41 38 36 35 35 37 38 40 41 42 40 39 38 37 38 39 39 41 41 43 40
31 30 31 33 34 35 37 36 40 41 41 41 41 41 41 42 43 43 43 41 40 38 36 35 33 36 34 34 34 35 38 39 39 38 37 38 38 39 39 41 41 41 41
32 32 33 33 35 36 36 35 35 38 41 41 41 41 41 40 42 42 42 41 42 39 34 32 32 33 34 34 34 34 35 38 37 38 38 38 39 40 42 41 41 41 41
33 35 33 35 36 36 36 36 36 36 35 36 39 41 41 38 38 40 40 39 35 36 36 36 36 37 37 37 35 35 35 36 36 38 38 39 40 41 41 41 40 41 41
33 33 34 36 36 37 37 36 36 36 36 36 37 39 37 36 36 36 36 35 34 34 34 35 35 36 38 39 40 40 40 38 37 37 38 39 39 40 41 42 42 42 42
33 35 35 36 36 36 36 36 35 35 35 36 36 36 35 33 32 32 34 34 33 33 34 34 35 36 36 37 38 39 41 39 38 38 37 38 39 39 41 42 42 43 42
33 33 35 35 35 35 36 35 35 35 35 35 36 37 35 33 31 31 31 33 33 33 33 34 35 35 36 36 36 37 37 40 41 39 38 38 39 40 42 43 43 43 42
33 33 35 34 35 35 35 36 35 35 35 35 36 34 34 33 31 31 31 33 33 34 34 35 35 35 35 35 36 36 37 37 39 41 41 39 39 41 41 43 43 42 43
33 33 34 34 35 36 35 35 35 35 35 36 35 34 33 32 32 32 31 33 33 33 34 34 34 34 36 36 36 37 37 37 38 41 41 41 40 41 42 42 43 43 43
33 33 34 34 35 35 34 34 35 36 36 36 34 33 34 34 33 33 32 32 34 34 34 34 34 33 33 35 36 37 39 39 39 40 41 41 42 42 43 43 43 42 42
32 33 34 33 34 34 34 34 34 35 36 36 34 34 33 35 33 32 31 32 33 33 34 34 34 33 34 34 36 39 40 39 39 39 41 41 41 42 41 41 41 41 41
32 32 34 34 34 34 33 33 34 34 34 36 35 35 35 34 33 31 30 30 32 33 34 34 34 34 35 37 39 40 39 39 39 40 41 42 42 42 42 42 41 41 41

GFSGL_sfc_dewp_060.txt.gz
Dewpoint
24 24 25 26 27 27 28 29 29 30 31 30 30 29 30 30 30 30 30 30 31 31 32 32 32 32 32 32 33 33 34 34 33 34 35 35 39 41 41 45 49 50 52
24 25 26 27 28 28 28 28 29 29 29 29 29 29 30 30 30 30 30 30 30 30 31 31 32 32 33 33 33 32 32 35 36 33 35 36 38 41 41 43 42 45 51
25 26 27 27 27 27 28 28 28 28 29 29 29 29 30 31 31 31 30 30 31 30 30 31 32 32 32 33 33 33 33 33 34 36 36 39 40 41 42 43 45 46 50
25 27 27 27 27 28 28 28 28 29 29 29 29 30 30 30 31 31 31 31 31 32 32 32 32 32 32 33 33 34 34 35 36 37 37 38 40 41 42 41 43 45 47
26 26 26 27 28 28 28 28 29 29 29 30 30 29 30 31 31 32 34 35 36 36 35 34 35 37 41 39 35 35 35 35 36 36 37 37 38 40 40 42 43 44 44
25 26 27 27 27 28 28 28 29 29 30 30 30 31 32 33 39 42 41 41 41 42 41 40 40 42 42 43 43 44 43 36 35 35 36 37 37 39 42 43 42 43 42
26 27 26 27 27 28 28 28 29 30 30 31 32 33 34 35 41 43 44 43 42 42 42 41 41 41 41 39 42 43 41 41 42 39 38 38 38 39 42 43 43 43 42
26 26 26 27 27 28 28 29 30 31 31 32 34 35 36 38 44 45 45 43 43 42 42 42 41 41 40 40 39 38 38 39 39 39 41 40 40 42 44 44 44 44 45
25 26 27 27 27 28 29 31 31 32 32 34 37 39 39 39 43 44 43 41 41 41 42 42 41 40 42 43 40 38 38 38 40 43 42 43 44 45 45 45 43 43 40
25 27 27 28 29 30 31 32 32 33 36 39 39 39 41 39 42 44 43 41 41 41 42 41 43 42 42 42 39 37 37 37 40 40 41 43 43 44 46 45 44 42 40
26 27 28 29 30 31 31 31 34 35 38 38 38 38 39 40 41 42 44 42 43 42 41 40 39 42 42 40 40 39 38 39 40 40 40 43 43 45 46 46 45 43 40
27 28 29 29 30 30 30 33 34 37 37 37 37 38 39 39 40 42 44 45 45 44 42 40 39 41 40 39 38 39 40 41 41 39 40 41 41 42 45 45 45 44 44
28 28 29 30 31 32 33 35 37 38 37 37 36 38 39 38 39 43 44 44 44 42 41 40 40 40 40 39 41 42 43 42 40 39 39 38 39 41 44 45 45 45 43
28 29 31 30 32 31 34 36 37 37 36 37 38 38 39 37 39 40 40 41 42 42 41 39 39 39 39 39 40 39 43 43 40 39 38 39 40 41 42 43 43 43 42
29 30 29 29 31 32 35 37 37 38 40 39 39 39 38 37 39 41 41 41 41 39 41 38 35 35 34 36 39 38 41 42 41 40 38 37 39 39 39 42 42 42 41
29 29 29 29 32 34 36 36 39 41 41 41 40 41 40 40 39 40 42 41 41 40 36 35 32 33 33 33 35 37 38 40 40 39 39 38 38 38 40 41 41 41 40
29 29 32 32 33 35 35 35 34 38 41 41 41 41 38 37 37 38 40 40 40 39 35 35 32 33 33 33 33 34 35 38 39 39 38 38 38 39 40 41 41 41 40
30 34 32 34 35 35 35 35 36 35 34 36 39 41 37 35 35 36 37 37 34 35 35 35 35 36 36 36 34 34 34 35 36 37 38 38 39 40 40 39 40 39 41
31 33 33 34 35 36 36 36 36 35 35 36 37 38 36 34 33 33 35 34 32 32 33 34 35 36 36 37 39 37 36 35 35 36 36 37 38 39 41 41 41 40 40
34 34 33 35 35 35 35 35 35 35 35 35 35 34 35 31 30 30 33 33 33 32 33 34 35 36 36 36 37 38 39 40 38 36 38 37 38 38 40 42 41 41 40
34 32 34 34 34 35 35 35 35 35 35 35 36 35 34 31 31 32 32 32 32 32 32 34 34 35 35 36 36 37 37 38 39 38 37 40 41 40 39 43 42 43 42
31 32 33 34 34 35 35 35 35 35 35 35 34 33 35 33 33 32 33 33 33 34 34 34 33 34 35 35 35 36 36 37 39 40 38 37 38 38 39 41 43 43 42
32 32 33 34 34 36 35 34 35 35 35 33 33 33 34 34 34 31 32 33 33 33 34 34 34 34 35 35 36 36 36 37 38 40 40 39 38 38 39 41 42 42 42
32 31 33 33 34 34 34 34 34 35 35 35 34 34 34 34 33 30 32 33 33 33 34 34 34 33 33 34 35 36 37 38 39 39 41 41 39 40 39 41 42 42 42
32 32 32 34 33 33 33 33 33 34 35 35 35 35 35 32 31 30 32 33 33 33 33 33 33 33 34 34 35 36 37 38 39 39 41 42 40 40 41 42 42 42 42
31 31 33 34 33 33 33 33 33 34 34 35 35 35 34 31 30 31 31 32 32 33 33 33 33 33 34 36 39 39 39 39 38 39 41 42 42 42 42 42 42 42 42

GFSGL_sfc_dewp_066.txt.gz
Dewpoint
27 28 28 28 27 27 26 26 27 26 25 25 25 27 28 29 30 30 31 31 31 32 32 32 32 32 33 33 34 34 34 34 33 32 32 31 31 31 32 35 37 36 38
28 27 27 28 28 26 25 23 22 23 24 23 24 26 28 30 31 31 31 31 31 31 32 32 32 31 32 33 34 33 33 33 33 32 33 33 32 32 33 34 34 33 35
27 27 27 27 26 25 23 23 22 21 22 23 25 28 29 31 32 32 31 31 31 31 32 33 33 33 32 33 33 33 34 33 33 33 32 34 34 33 34 34 34 35 34
27 28 28 26 25 25 24 23 22 22 23 25 27 30 31 32 32 32 33 33 33 34 34 34 34 35 34 33 34 34 34 34 34 34 35 35 33 35 35 34 34 35 34
26 26 26 25 24 24 24 24 24 25 26 29 30 31 32 33 32 34 36 37 39 39 39 38 39 39 43 42 36 36 36 35 35 36 36 35 36 34 36 35 35 35 35
25 25 25 24 24 25 24 24 26 28 30 30 31 32 32 33 39 41 41 41 42 42 41 42 41 43 44 47 48 47 44 38 36 36 37 36 35 35 36 34 34 33 34
24 23 23 22 24 24 24 25 28 29 30 30 31 32 33 34 41 43 43 42 42 42 42 42 40 40 42 41 45 45 45 46 45 40 38 38 36 37 35 37 37 36 37
23 22 22 23 24 24 25 27 28 29 30 31 32 33 36 37 42 44 44 41 41 41 40 40 41 41 42 42 42 42 42 42 42 42 42 40 40 40 40 39 38 38 40
23 22 23 24 24 25 28 29 30 31 31 32 34 35 36 37 42 43 42 41 39 40 40 40 41 42 44 46 44 43 41 41 42 44 43 43 44 44 42 42 41 41 39
24 24 25 25 25 26 29 30 31 33 33 33 35 37 38 38 41 43 41 39 40 40 40 42 43 44 46 47 44 42 40 40 40 39 38 39 40 41 42 40 40 40 40
25 25 26 25 25 27 29 30 31 32 32 35 37 36 37 38 40 42 40 39 39 40 40 41 41 42 43 43 44 41 40 41 40 37 36 38 37 38 41 43 44 43 42
26 27 26 25 25 27 29 29 30 32 36 37 36 37 38 39 41 42 40 40 40 39 39 42 37 40 41 39 39 42 43 40 39 39 38 38 40 40 40 42 43 45 46
26 27 24 24 25 28 28 31 34 35 36 36 37 37 36 40 38 39 40 40 40 38 39 43 41 40 41 40 39 40 40 41 40 40 39 39 41 42 42 42 43 45 45
26 26 23 24 27 29 29 32 36 36 36 36 37 37 37 38 37 38 38 38 38 39 40 40 41 41 40 40 39 39 40 42 41 40 38 40 42 41 40 42 44 45 43
27 25 23 25 29 30 31 35 37 38 39 38 38 38 37 37 35 35 35 36 37 38 39 40 39 39 37 38 37 39 40 40 41 41 40 41 41 41 43 44 43 43 42
27 24 25 29 30 31 35 34 39 40 40 39 39 39 36 37 35 35 36 37 36 40 36 36 37 36 36 37 37 39 39 39 41 41 40 40 40 42 43 43 43 44 44
27 26 29 31 31 34 35 35 34 37 40 39 39 39 36 36 34 35 36 34 35 37 34 34 35 36 37 36 38 38 38 38 41 41 39 40 40 40 42 41 41 43 42
28 31 30 32 34 36 35 35 35 35 34 35 37 36 35 36 35 35 36 33 31 32 33 34 34 35 36 37 37 38 39 39 41 41 40 41 41 41 39 39 40 39 42
29 30 30 34 35 35 35 35 35 35 35 36 35 33 34 36 34 35 34 32 33 32 32 33 34 35 35 36 37 38 38 39 39 41 41 40 40 39 38 38 38 39 41
30 32 32 34 34 35 35 35 35 36 36 35 36 35 36 36 31 32 32 33 32 33 33 32 33 34 34 35 36 37 38 38 38 40 40 40 40 39 38 37 38 38 38
31 31 34 32 33 34 35 34 34 34 34 36 36 36 38 36 35 33 33 33 34 33 33 34 32 33 34 34 35 36 37 38 39 37 39 39 39 37 38 39 39 40 39
32 30 32 32 35 34 35 35 34 34 35 34 35 35 37 33 33 32 32 33 34 35 35 35 33 32 33 33 34 35 35 36 38 39 38 38 39 38 39 40 41 42 41
30 29 31 32 34 35 34 34 33 34 34 34 35 34 32 32 32 32 33 34 34 34 34 35 34 33 34 34 33 34 35 36 38 40 38 37 38 37 39 40 40 40 40
30 30 30 32 35 35 35 34 33 33 33 34 35 31 31 33 33 33 34 34 34 34 34 34 34 34 33 34 34 35 35 36 38 39 41 39 38 37 39 38 40 40 41
30 30 31 34 34 34 33 34 32 31 32 34 30 31 32 32 32 33 34 34 33 33 33 33 34 34 35 35 34 34 35 36 36 38 40 40 38 36 38 39 39 40 40
31 29 30 33 34 34 34 34 31 30 30 31 32 33 34 33 33 33 33 33 33 33 33 33 33 33 35 35 36 36 36 35 35 38 40 42 40 39 38 38 38 40 40